Lid_Strength_Index
7 7 7 7 7 7 7 7 7 7 7 7 7 8 8 9 8 9 10 9 9 10 9 9 8 8 7 7 6 7 7 8 10 10 9 8 8 8 7 6 6 5 4
7 7 7 7 7 7 7 7 6 7 7 7 7 8 9 9 9 9 9 9 10 10 9 9 7 6 8 7 6 7 7 8 9 12 10 9 9 8 7 8 7 5 4
7 8 7 7 7 7 7 7 7 7 7 7 7 7 8 9 8 8 9 9 9 9 9 8 8 8 9 8 7 7 8 8 9 10 10 9 9 8 8 8 7 6 4
8 8 7 7 7 7 6 7 7 7 7 6 7 6 7 7 8 8 8 9 9 9 8 8 6 7 8 7 7 8 8 9 9 10 9 10 9 8 9 9 8 7 5
7 7 7 7 6 6 7 7 7 6 6 7 7 7 7 8 7 8 8 8 9 9 8 7 6 6 6 7 8 9 9 9 9 10 10 11 10 10 10 9 9 8 6
8 7 6 6 7 7 7 7 7 7 7 7 7 7 7 6 5 5 6 8 8 10 9 8 7 7 8 7 7 7 8 10 10 11 11 12 12 10 9 9 9 9 8
7 6 6 6 7 7 7 7 7 8 8 8 7 7 7 6 6 6 6 8 10 9 9 9 9 8 6 7 7 7 7 7 7 8 9 10 12 10 9 9 8 9 8
7 6 6 7 7 7 7 7 8 9 8 8 7 6 7 6 7 7 7 9 10 10 10 10 11 9 7 7 8 9 9 9 9 9 9 9 10 8 8 7 7 7 6
6 7 7 7 7 7 8 8 8 8 9 9 7 7 8 9 8 8 8 10 10 11 10 10 10 8 8 8 9 10 9 9 7 7 7 8 8 8 6 7 7 7 7
7 7 7 7 7 8 8 8 9 9 8 7 8 9 7 9 8 8 8 10 11 11 11 11 8 8 8 8 9 10 10 10 9 10 9 8 8 7 7 7 7 8 7
7 7 7 7 7 8 8 9 9 8 8 9 9 10 10 9 9 8 8 10 11 11 11 9 8 8 9 8 8 9 11 9 9 9 9 9 10 9 8 8 8 8 7
7 6 6 7 6 6 8 9 9 9 9 11 11 11 9 9 8 9 9 9 9 11 10 8 8 9 9 9 9 9 9 9 9 10 10 10 10 10 9 8 8 9 7
6 8 8 7 7 8 9 9 9 10 11 11 11 11 10 10 10 8 9 9 9 9 8 8 9 9 9 8 8 9 9 9 11 12 12 11 10 8 8 7 9 8 6
8 8 8 9 9 9 9 9 10 10 11 10 11 11 10 10 10 8 10 11 9 8 8 9 8 8 8 8 9 9 10 11 11 12 12 11 10 10 9 7 9 8 6
8 7 8 8 9 10 9 9 10 11 10 10 10 10 10 10 9 9 9 9 10 9 9 8 9 9 10 10 11 11 11 11 11 11 11 11 11 10 10 8 7 7 7
8 7 8 9 10 10 10 10 10 10 9 9 8 9 9 9 9 10 10 10 10 10 9 10 10 10 11 11 12 12 11 11 11 11 11 11 11 10 10 8 7 7 7
9 8 8 8 10 11 10 10 10 10 8 9 9 10 9 9 10 10 10 10 10 10 10 10 10 11 11 12 12 12 12 12 11 11 11 11 11 10 10 9 9 8 8
7 7 8 10 11 10 10 9 9 9 10 9 9 9 9 10 10 9 9 10 8 9 9 10 11 11 11 12 12 12 12 12 12 12 11 11 10 10 10 9 9 8 7
7 7 8 10 10 9 9 9 9 9 10 10 10 10 10 10 9 9 9 9 9 9 9 10 11 11 11 12 12 12 12 12 12 12 12 11 10 10 9 9 9 9 9
9 8 9 10 10 9 9 9 9 10 10 10 11 11 10 10 9 9 9 9 9 9 10 11 11 11 11 12 13 13 13 13 13 13 13 12 11 10 10 9 9 8 8
10 10 12 9 8 9 8 9 9 10 10 11 11 11 13 9 9 9 9 9 9 10 11 11 11 12 12 13 14 13 13 13 14 13 13 13 11 11 9 9 8 8 8
10 9 8 9 9 9 8 8 9 10 10 11 11 10 12 9 9 9 9 9 9 11 11 11 12 12 12 13 14 13 13 14 13 14 13 13 12 11 10 9 8 9 8
10 8 8 9 9 10 8 8 9 10 10 11 11 10 10 9 9 9 9 9 12 12 12 12 13 14 13 13 12 13 12 13 13 13 14 13 12 11 10 9 9 9 8
8 8 8 9 8 9 8 8 9 11 10 11 10 10 10 9 9 9 9 11 13 13 12 12 13 13 13 13 13 12 11 12 13 13 13 13 13 12 10 9 9 9 9
9 9 9 9 9 9 8 9 9 10 10 11 11 10 10 9 9 10 10 13 13 13 13 13 13 13 12 12 11 11 13 14 14 14 14 12 12 10 10 9 9 8 8
9 8 9 9 9 8 9 9 9 10 10 10 11 9 9 9 10 10 12 14 14 14 14 14 13 12 12 11 10 13 14 14 14 14 13 12 12 10 9 9 8 8 7